Date String (YYYY-MM-DD hh:mm:ss) UTC,Instrument flags,Ambient pressure (hPa),Sample flow (lpm),Bypass flow (lpm),Sample temperature (°C),Ambient temperature (°C),ASC tube jacket temperature (°C),LED temperature (°C),Box temperature (°C),Sample RH (%),Span deviation,Mass concentration (μg/m³),Mass concentration (μg/m³),Mass concentration (μg/m³)
DateTimeUTC,F1_M11,P_M11,Q1_M11,Q2_M11,T1_M11,T2_M11,T3_M11,T4_M11,T5_M11,U1_M11,ZSPAN_M11,X2_M11,X0_M11,X1_M11
2023-05-18 04:00:00,,0830.7,5.00,0.00,30.1,28.7,00.0,38.5,31.7,24.3,0000.0,0004.00,0009.42,0003.16
2023-05-18 04:01:00,,0830.6,4.98,0.00,30.1,27.5,00.0,38.4,31.6,24.4,0000.0,0003.97,0009.34,0003.15
2023-05-18 04:02:00,,0830.6,5.00,0.00,30.1,25.8,00.0,38.3,31.3,24.5,0000.0,0003.96,0009.35,0003.15
2023-05-18 04:03:00,,0830.6,5.01,0.00,30.0,25.4,00.0,38.3,31.1,24.6,0000.0,0003.97,0009.43,0003.13
2023-05-18 04:04:00,,0830.7,5.01,0.00,29.8,25.6,00.0,38.2,31.0,25.0,0000.0,0003.98,0009.14,0003.12
2023-05-18 04:05:00,,0830.7,5.00,0.00,29.8,25.9,00.0,38.2,31.1,25.3,0000.0,0003.98,0009.12,0003.11
2023-05-18 04:06:00,,0830.7,5.01,0.00,29.7,26.3,00.0,38.2,31.1,25.5,0000.0,0003.96,0009.33,0003.11
2023-05-18 04:07:00,,0830.7,5.01,0.00,29.7,26.7,00.0,38.2,31.1,25.6,0000.0,0003.91,0008.97,0003.10
2023-05-18 04:08:00,,0830.8,5.00,0.00,29.7,27.0,00.0,38.2,31.2,25.7,0000.0,0003.87,0009.09,0003.11
2023-05-18 04:09:00,,0830.8,5.00,0.00,29.7,27.2,00.0,38.1,31.2,25.8,0000.0,0003.87,0008.90,0003.12
2023-05-18 04:10:00,,0830.8,5.00,0.00,29.7,27.4,00.0,38.1,31.2,25.9,0000.0,0003.86,0008.52,0003.12
2023-05-18 04:11:00,,0830.8,5.01,0.00,29.7,27.6,00.0,38.1,31.2,25.7,0000.0,0003.87,0008.52,0003.14
2023-05-18 04:12:00,,0830.8,4.99,0.00,29.7,27.8,00.0,38.1,31.3,25.7,0000.0,0003.89,0009.34,0003.14
2023-05-18 04:13:00,,0830.8,5.00,0.00,29.7,27.9,00.0,38.1,31.3,25.7,0000.0,0003.90,0009.41,0003.15
2023-05-18 04:14:00,,0830.9,5.01,0.00,29.7,28.0,00.0,38.1,31.3,25.7,0000.0,0003.92,0009.62,0003.17
2023-05-18 04:15:00,,0830.9,5.00,0.00,29.7,28.0,00.0,38.1,31.3,25.9,0000.0,0003.94,0010.33,0003.19
2023-05-18 04:16:00,,0830.9,4.99,0.00,29.7,28.1,00.0,38.1,31.3,25.9,0000.0,0003.97,0010.37,0003.20
2023-05-18 04:17:00,,0831.0,5.00,0.00,29.7,28.2,00.0,38.1,31.4,25.9,0000.0,0004.05,0010.39,0003.22
2023-05-18 04:18:00,,0831.0,5.01,0.00,29.8,28.2,00.0,38.1,31.4,26.1,0000.0,0004.12,0010.49,0003.24
2023-05-18 04:19:00,,0831.1,4.98,0.00,29.8,28.3,00.0,38.1,31.4,26.1,0000.0,0004.19,0010.23,0003.26
2023-05-18 04:20:00,,0831.2,5.01,0.00,29.8,28.3,00.0,38.1,31.4,26.2,0000.0,0004.26,0010.11,0003.29
2023-05-18 04:21:00,,0831.1,5.01,0.00,29.8,28.3,00.0,38.1,31.4,26.3,0000.0,0004.30,0010.48,0003.31
2023-05-18 04:22:00,,0831.1,5.00,0.00,29.8,28.3,00.0,38.1,31.4,26.3,0000.0,0004.29,0010.55,0003.31
2023-05-18 04:23:00,,0831.1,4.99,0.00,29.8,28.4,00.0,38.2,31.5,26.4,0000.0,0004.27,0009.88,0003.33
2023-05-18 04:24:00,,0831.1,5.00,0.00,29.8,28.4,00.0,38.2,31.5,26.4,0000.0,0004.33,0010.72,0003.35
2023-05-18 04:25:00,,0831.2,5.01,0.00,29.9,28.4,00.0,38.2,31.5,26.4,0000.0,0004.37,0010.73,0003.37
2023-05-18 04:26:00,,0831.2,5.01,0.00,29.9,28.4,00.0,38.2,31.5,26.4,0000.0,0004.37,0010.36,0003.38
2023-05-18 04:27:00,,0831.2,5.00,0.00,29.9,28.4,00.0,38.2,31.5,26.4,0000.0,0004.37,0010.36,0003.39
2023-05-18 04:28:00,,0831.2,4.99,0.00,29.9,28.4,00.0,38.2,31.5,26.4,0000.0,0004.34,0010.36,0003.41
2023-05-18 04:29:00,,0831.3,5.00,0.00,29.9,28.5,00.0,38.2,31.5,26.3,0000.0,0004.35,0010.68,0003.42
2023-05-18 04:30:00,,0831.2,5.01,0.00,29.9,28.5,00.0,38.2,31.5,26.3,0000.0,0004.36,0010.67,0003.44
2023-05-18 04:31:00,,0831.3,5.00,0.00,30.0,28.5,00.0,38.2,31.6,26.5,0000.0,0004.35,0010.61,0003.45
2023-05-18 04:32:00,,0831.3,4.99,0.00,30.0,28.5,00.0,38.3,31.6,26.7,0000.0,0004.38,0010.48,0003.46
2023-05-18 04:33:00,,0831.3,5.01,0.00,30.0,28.5,00.0,38.3,31.6,26.7,0000.0,0004.43,0010.46,0003.49
2023-05-18 04:34:00,,0831.3,5.01,0.00,30.0,28.6,00.0,38.3,31.6,26.9,0000.0,0004.48,0010.61,0003.50
2023-05-18 04:35:00,,0831.3,4.98,0.00,30.0,28.6,00.0,38.3,31.6,26.7,0000.0,0004.46,0009.84,0003.52
2023-05-18 04:36:00,,0831.3,5.00,0.00,30.0,28.6,00.0,38.3,31.6,26.6,0000.0,0004.44,0010.09,0003.53
2023-05-18 04:37:00,,0831.3,5.01,0.00,30.0,28.6,00.0,38.3,31.7,26.6,0000.0,0004.44,0009.88,0003.56
2023-05-18 04:38:00,,0831.4,5.00,0.00,30.0,28.6,00.0,38.3,31.7,26.5,0000.0,0004.48,0009.92,0003.59
2023-05-18 04:39:00,,0831.4,4.99,0.00,30.1,28.6,00.0,38.4,31.7,26.1,0000.0,0004.53,0009.81,0003.62
2023-05-18 04:40:00,,0831.5,5.01,0.00,30.1,28.6,00.0,38.4,31.7,25.9,0000.0,0004.58,0009.47,0003.66
2023-05-18 04:41:00,,0831.5,4.99,0.00,30.1,28.6,00.0,38.4,31.7,25.3,0000.0,0004.58,0009.42,0003.68
2023-05-18 04:42:00,,0831.5,5.00,0.00,30.1,28.7,00.0,38.4,31.7,25.2,0000.0,0004.61,0009.49,0003.70
2023-05-18 04:43:00,,0831.5,5.01,0.00,30.1,28.7,00.0,38.4,31.7,25.2,0000.0,0004.66,0010.09,0003.73
2023-05-18 04:44:00,,0831.5,4.99,0.00,30.1,28.7,00.0,38.4,31.7,25.1,0000.0,0004.68,0010.03,0003.76
2023-05-18 04:45:00,,0831.6,5.00,0.00,30.1,28.7,00.0,38.4,31.7,25.2,0000.0,0004.73,0010.13,0003.80
2023-05-18 04:46:00,,0831.6,5.01,0.00,30.1,28.7,00.0,38.4,31.8,25.2,0000.0,0004.78,0010.11,0003.84
2023-05-18 04:47:00,,0831.6,5.00,0.00,30.2,28.7,00.0,38.5,31.7,25.4,0000.0,0004.81,0009.67,0003.86
2023-05-18 04:48:00,,0831.6,5.00,0.00,30.2,28.7,00.0,38.5,31.7,25.6,0000.0,0004.79,0009.49,0003.88
2023-05-18 04:49:00,,0831.7,5.00,0.00,30.2,28.7,00.0,38.5,31.8,25.5,0000.0,0004.80,0009.90,0003.89
2023-05-18 04:50:00,,0831.7,5.00,0.00,30.2,28.7,00.0,38.5,31.8,25.2,0000.0,0004.81,0009.94,0003.91
2023-05-18 04:51:00,,0831.7,5.00,0.00,30.2,28.8,00.0,38.5,31.8,25.3,0000.0,0004.79,0009.80,0003.91
2023-05-18 04:52:00,,0832.1,4.98,0.00,30.2,27.9,00.0,38.5,31.7,25.0,0000.0,0004.82,0009.89,0003.92
2023-05-18 04:53:00,,0832.1,5.00,0.00,30.1,26.1,00.0,38.4,31.4,25.2,0000.0,0004.85,0010.00,0003.93
2023-05-18 04:54:00,,0832.1,5.00,0.00,30.0,25.4,00.0,38.3,31.2,25.5,0000.0,0004.87,0009.51,0003.94
2023-05-18 04:55:00,,0832.0,5.00,0.00,29.9,25.5,00.0,38.3,31.1,25.5,0000.0,0004.90,0009.61,0003.94
2023-05-18 04:56:00,,0831.8,5.02,0.00,29.8,25.9,00.0,38.3,31.1,25.4,0000.0,0004.88,0009.48,0003.94
2023-05-18 04:57:00,,0831.9,5.00,0.00,29.8,26.2,00.0,38.2,31.1,25.3,0000.0,0004.84,0009.67,0003.94
2023-05-18 04:58:00,,0831.9,5.00,0.00,29.7,26.6,00.0,38.2,31.2,25.5,0000.0,0004.89,0010.73,0003.94
2023-05-18 04:59:00,,0831.9,5.00,0.00,29.7,26.9,00.0,38.2,31.2,25.5,0000.0,0004.94,0010.76,0003.95
